Time,TemperatureF,DewpointF,PressureIn,WindDirection,WindDirectionDegrees,WindSpeedMPH,WindSpeedGustMPH,Humidity,HourlyPrecipIn,Conditions,Clouds,dailyrainin,SoftwareType,DateUTC
2013-02-25 00:03:00,44.8,6.2,29.15,ENE,57,0.0,0.0,20,0.00,,CLR,0.00,VWS V14.01,2013-02-25 08:03:00,
2013-02-25 00:08:00,44.8,6.2,29.15,ENE,68,0.0,0.0,20,0.00,,CLR,0.00,VWS V14.01,2013-02-25 08:08:00,
2013-02-25 00:13:00,44.6,6.0,29.15,SSE,165,3.1,3.1,20,0.00,,CLR,0.00,VWS V14.01,2013-02-25 08:13:00,
2013-02-25 00:18:00,44.4,5.9,29.15,South,172,2.2,2.7,20,0.00,,CLR,0.00,VWS V14.01,2013-02-25 08:18:00,
2013-02-25 00:24:00,44.2,5.7,29.15,South,172,2.2,2.7,20,0.00,,CLR,0.00,VWS V14.01,2013-02-25 08:24:00,
2013-02-25 00:29:00,44.2,5.7,29.15,South,181,2.7,2.7,20,0.00,,CLR,0.00,VWS V14.01,2013-02-25 08:29:00,
2013-02-25 00:34:00,44.1,5.6,29.15,South,171,3.1,4.0,20,0.00,,CLR,0.00,VWS V14.01,2013-02-25 08:34:00,
2013-02-25 00:39:00,44.1,5.6,29.15,South,170,3.6,3.6,20,0.00,,CLR,0.00,VWS V14.01,2013-02-25 08:39:00,
2013-02-25 00:44:00,44.1,5.6,29.15,South,170,0.0,2.2,20,0.00,,CLR,0.00,VWS V14.01,2013-02-25 08:44:00,
2013-02-25 00:49:00,43.9,5.4,29.15,South,170,0.0,0.0,20,0.00,,CLR,0.00,VWS V14.01,2013-02-25 08:49:00,
2013-02-25 00:54:00,43.7,5.3,29.15,South,170,0.0,0.0,20,0.00,,CLR,0.00,VWS V14.01,2013-02-25 08:54:00,
2013-02-25 00:59:00,43.7,5.3,29.15,South,170,0.0,0.0,20,0.00,,CLR,0.00,VWS V14.01,2013-02-25 08:59:00,
2013-02-25 01:04:00,43.7,5.3,29.15,South,170,0.0,0.0,20,0.00,,CLR,0.00,VWS V14.01,2013-02-25 09:04:00,
2013-02-25 01:09:00,43.5,5.1,29.15,South,170,0.0,0.0,20,0.00,,CLR,0.00,VWS V14.01,2013-02-25 09:09:00,
2013-02-25 01:14:00,43.5,5.1,29.15,South,170,0.0,0.0,20,0.00,,CLR,0.00,VWS V14.01,2013-02-25 09:14:00,
2013-02-25 01:19:00,43.5,5.1,29.15,South,170,0.0,0.0,20,0.00,,CLR,0.00,VWS V14.01,2013-02-25 09:19:00,
2013-02-25 01:24:00,43.5,5.1,29.15,South,170,0.0,0.0,20,0.00,,CLR,0.00,VWS V14.01,2013-02-25 09:24:00,
2013-02-25 01:29:00,43.3,5.0,29.15,South,170,0.0,0.0,20,0.00,,CLR,0.00,VWS V14.01,2013-02-25 09:29:00,
2013-02-25 01:34:00,43.3,5.0,29.15,South,170,0.0,2.2,20,0.00,,CLR,0.00,VWS V14.01,2013-02-25 09:34:00,
2013-02-25 01:39:00,43.3,5.0,29.15,South,170,0.0,0.0,20,0.00,,CLR,0.00,VWS V14.01,2013-02-25 09:39:00,
2013-02-25 01:44:00,43.2,4.8,29.15,South,170,0.0,0.0,20,0.00,,CLR,0.00,VWS V14.01,2013-02-25 09:44:00,
2013-02-25 01:49:00,43.0,4.7,29.15,South,170,0.0,0.0,20,0.00,,CLR,0.00,VWS V14.01,2013-02-25 09:49:00,
2013-02-25 01:55:00,43.0,4.7,29.15,South,170,0.0,0.0,20,0.00,,CLR,0.00,VWS V14.01,2013-02-25 09:55:00,
2013-02-25 02:00:00,42.8,4.5,29.15,South,170,0.0,0.0,20,0.00,,CLR,0.00,VWS V14.01,2013-02-25 10:00:00,
2013-02-25 02:05:00,42.6,5.4,29.15,South,170,0.0,0.0,21,0.00,,CLR,0.00,VWS V14.01,2013-02-25 10:05:00,
2013-02-25 02:10:00,42.4,5.3,29.15,South,170,0.0,0.0,21,0.00,,CLR,0.00,VWS V14.01,2013-02-25 10:10:00,
2013-02-25 02:15:00,42.4,5.3,29.15,South,170,0.0,0.0,21,0.00,,CLR,0.00,VWS V14.01,2013-02-25 10:15:00,
2013-02-25 02:20:00,42.3,5.1,29.15,South,170,0.0,0.0,21,0.00,,CLR,0.00,VWS V14.01,2013-02-25 10:20:00,
2013-02-25 02:25:00,42.1,5.0,29.15,South,170,0.0,0.0,21,0.00,,CLR,0.00,VWS V14.01,2013-02-25 10:25:00,
2013-02-25 02:30:00,42.1,5.0,29.15,South,170,0.0,0.0,21,0.00,,CLR,0.00,VWS V14.01,2013-02-25 10:30:00,
2013-02-25 02:35:00,41.7,4.7,29.15,South,170,0.0,0.0,21,0.00,,CLR,0.00,VWS V14.01,2013-02-25 10:35:00,
2013-02-25 02:40:00,41.7,4.7,29.15,South,170,0.0,0.0,21,0.00,,CLR,0.00,VWS V14.01,2013-02-25 10:40:00,
2013-02-25 02:45:00,41.5,4.5,29.15,South,170,0.0,0.0,21,0.00,,CLR,0.00,VWS V14.01,2013-02-25 10:45:00,
2013-02-25 02:50:00,41.2,4.2,29.15,South,170,0.0,0.0,21,0.00,,CLR,0.00,VWS V14.01,2013-02-25 10:50:00,
2013-02-25 02:55:00,41.0,4.1,29.15,South,170,0.0,0.0,21,0.00,,CLR,0.00,VWS V14.01,2013-02-25 10:55:00,
2013-02-25 03:00:00,41.0,4.1,29.15,South,170,0.0,0.0,21,0.00,,CLR,0.00,VWS V14.01,2013-02-25 11:00:00,
2013-02-25 03:05:00,40.8,3.9,29.15,South,170,0.0,0.0,21,0.00,,CLR,0.00,VWS V14.01,2013-02-25 11:05:00,
2013-02-25 03:10:00,40.8,3.9,29.15,South,170,0.0,0.0,21,0.00,,CLR,0.00,VWS V14.01,2013-02-25 11:10:00,
2013-02-25 03:15:00,40.8,3.9,29.15,South,170,0.0,0.0,21,0.00,,CLR,0.00,VWS V14.01,2013-02-25 11:15:00,
2013-02-25 03:20:00,40.8,3.9,29.15,South,170,2.7,2.7,21,0.00,,CLR,0.00,VWS V14.01,2013-02-25 11:20:00,
2013-02-25 03:25:00,40.8,3.9,29.15,South,170,0.0,0.0,21,0.00,,CLR,0.00,VWS V14.01,2013-02-25 11:25:00,
2013-02-25 03:31:00,40.6,3.8,29.15,South,170,0.0,0.0,21,0.00,,CLR,0.00,VWS V14.01,2013-02-25 11:31:00,
2013-02-25 03:36:00,40.6,3.8,29.15,South,170,0.0,0.0,21,0.00,,CLR,0.00,VWS V14.01,2013-02-25 11:36:00,
2013-02-25 03:41:00,40.6,3.8,29.15,South,170,0.0,0.0,21,0.00,,CLR,0.00,VWS V14.01,2013-02-25 11:41:00,
2013-02-25 03:46:00,40.6,3.8,29.15,South,170,0.0,0.0,21,0.00,,CLR,0.00,VWS V14.01,2013-02-25 11:46:00,
2013-02-25 03:51:00,40.5,3.6,29.15,South,170,0.0,0.0,21,0.00,,CLR,0.00,VWS V14.01,2013-02-25 11:51:00,
2013-02-25 03:56:00,40.5,3.6,29.15,South,170,0.0,0.0,21,0.00,,CLR,0.00,VWS V14.01,2013-02-25 11:56:00,
2013-02-25 04:01:00,40.5,3.6,29.15,South,170,0.0,0.0,21,0.00,,CLR,0.00,VWS V14.01,2013-02-25 12:01:00,
2013-02-25 04:06:00,40.3,3.5,29.15,South,170,0.0,0.0,21,0.00,,CLR,0.00,VWS V14.01,2013-02-25 12:06:00,
2013-02-25 04:11:00,40.1,3.3,29.15,South,170,0.0,0.0,21,0.00,,CLR,0.00,VWS V14.01,2013-02-25 12:11:00,
2013-02-25 04:16:00,40.1,3.3,29.15,South,170,0.0,0.0,21,0.00,,CLR,0.00,VWS V14.01,2013-02-25 12:16:00,
2013-02-25 04:21:00,39.9,3.2,29.15,South,170,0.0,0.0,21,0.00,,CLR,0.00,VWS V14.01,2013-02-25 12:21:00,
2013-02-25 04:26:00,39.9,3.2,29.15,South,170,0.0,0.0,21,0.00,,CLR,0.00,VWS V14.01,2013-02-25 12:26:00,
2013-02-25 04:31:00,39.7,3.0,29.15,South,170,0.0,0.0,21,0.00,,CLR,0.00,VWS V14.01,2013-02-25 12:31:00,
2013-02-25 04:36:00,39.6,2.9,29.15,South,170,0.0,0.0,21,0.00,,CLR,0.00,VWS V14.01,2013-02-25 12:36:00,
2013-02-25 04:41:00,39.4,2.7,29.15,South,170,0.0,0.0,21,0.00,,CLR,0.00,VWS V14.01,2013-02-25 12:41:00,
2013-02-25 04:46:00,39.2,2.6,29.15,South,170,0.0,0.0,21,0.00,,CLR,0.00,VWS V14.01,2013-02-25 12:46:00,
2013-02-25 04:51:00,39.0,2.4,29.15,South,170,0.0,0.0,21,0.00,,CLR,0.00,VWS V14.01,2013-02-25 12:51:00,
2013-02-25 04:56:00,38.8,2.3,29.15,South,170,0.0,0.0,21,0.00,,CLR,0.00,VWS V14.01,2013-02-25 12:56:00,
2013-02-25 05:02:00,38.7,2.1,29.15,South,170,0.0,0.0,21,0.00,,CLR,0.00,VWS V14.01,2013-02-25 13:02:00,
2013-02-25 05:07:00,38.7,2.1,29.15,South,170,0.0,0.0,21,0.00,,CLR,0.00,VWS V14.01,2013-02-25 13:07:00,
2013-02-25 05:12:00,38.5,2.0,29.15,South,170,0.0,0.0,21,0.00,,CLR,0.00,VWS V14.01,2013-02-25 13:12:00,
2013-02-25 05:17:00,38.3,1.8,29.15,South,170,0.0,0.0,21,0.00,,CLR,0.00,VWS V14.01,2013-02-25 13:17:00,
2013-02-25 05:22:00,38.1,1.6,29.15,South,170,0.0,0.0,21,0.00,,CLR,0.00,VWS V14.01,2013-02-25 13:22:00,
2013-02-25 05:27:00,37.9,1.5,29.15,South,170,0.0,0.0,21,0.00,,CLR,0.00,VWS V14.01,2013-02-25 13:27:00,
2013-02-25 05:33:00,37.8,1.4,29.15,South,170,0.0,0.0,21,0.00,,CLR,0.00,VWS V14.01,2013-02-25 13:33:00,
2013-02-25 05:38:00,37.6,1.2,29.15,South,170,0.0,0.0,21,0.00,,CLR,0.00,VWS V14.01,2013-02-25 13:38:00,
2013-02-25 05:43:00,37.6,1.2,29.15,South,170,0.0,0.0,21,0.00,,CLR,0.00,VWS V14.01,2013-02-25 13:43:00,
2013-02-25 05:48:00,37.4,1.0,29.15,South,170,0.0,0.0,21,0.00,,CLR,0.00,VWS V14.01,2013-02-25 13:48:00,
2013-02-25 05:53:00,37.4,1.0,29.15,South,170,0.0,0.0,21,0.00,,CLR,0.00,VWS V14.01,2013-02-25 13:53:00,
2013-02-25 05:58:00,37.2,1.9,29.15,South,170,0.0,0.0,22,0.00,,CLR,0.00,VWS V14.01,2013-02-25 13:58:00,
2013-02-25 06:03:00,37.0,1.7,29.15,South,170,0.0,0.0,22,0.00,,CLR,0.00,VWS V14.01,2013-02-25 14:03:00,
2013-02-25 06:08:00,37.0,1.7,29.15,South,170,0.0,0.0,22,0.00,,CLR,0.00,VWS V14.01,2013-02-25 14:08:00,
2013-02-25 06:14:00,37.0,1.7,29.15,South,170,0.0,0.0,22,0.00,,CLR,0.00,VWS V14.01,2013-02-25 14:14:00,
2013-02-25 06:19:00,36.9,1.6,29.15,South,170,0.0,0.0,22,0.00,,CLR,0.00,VWS V14.01,2013-02-25 14:19:00,
2013-02-25 06:24:00,36.9,1.6,29.15,South,170,0.0,0.0,22,0.00,,CLR,0.00,VWS V14.01,2013-02-25 14:24:00,
2013-02-25 06:29:00,36.9,1.6,29.15,South,170,0.0,0.0,22,0.00,,CLR,0.00,VWS V14.01,2013-02-25 14:29:00,
2013-02-25 06:34:00,36.9,1.6,29.15,South,170,0.0,0.0,22,0.00,,CLR,0.00,VWS V14.01,2013-02-25 14:34:00,
2013-02-25 06:39:00,36.7,1.4,29.15,South,172,0.0,0.0,22,0.00,,CLR,0.00,VWS V14.01,2013-02-25 14:39:00,
2013-02-25 06:44:00,36.7,1.4,29.15,South,171,0.0,0.0,22,0.00,,CLR,0.00,VWS V14.01,2013-02-25 14:44:00,
2013-02-25 06:49:00,36.7,1.4,29.15,South,173,3.1,3.1,22,0.00,,CLR,0.00,VWS V14.01,2013-02-25 14:49:00,
2013-02-25 06:54:00,36.7,1.4,29.15,South,173,0.0,0.0,22,0.00,,CLR,0.00,VWS V14.01,2013-02-25 14:54:00,
2013-02-25 06:59:00,36.7,1.4,29.15,South,176,0.0,0.0,22,0.00,,CLR,0.00,VWS V14.01,2013-02-25 14:59:00,
2013-02-25 07:04:00,36.9,1.6,29.15,South,176,0.0,0.0,22,0.00,,CLR,0.00,VWS V14.01,2013-02-25 15:04:00,
2013-02-25 07:09:00,37.0,1.7,29.15,South,176,0.0,0.0,22,0.00,,CLR,0.00,VWS V14.01,2013-02-25 15:09:00,
2013-02-25 07:14:00,37.0,1.7,29.15,South,176,0.0,0.0,22,0.00,,CLR,0.00,VWS V14.01,2013-02-25 15:14:00,
2013-02-25 07:19:00,37.2,1.9,29.15,South,176,0.0,0.0,22,0.00,,CLR,0.00,VWS V14.01,2013-02-25 15:19:00,
2013-02-25 07:24:00,37.4,1.0,29.15,South,176,0.0,0.0,21,0.00,,CLR,0.00,VWS V14.01,2013-02-25 15:24:00,
2013-02-25 07:29:00,37.8,1.4,29.15,South,171,0.0,0.0,21,0.00,,CLR,0.00,VWS V14.01,2013-02-25 15:29:00,
2013-02-25 07:34:00,37.9,1.5,29.15,South,171,0.0,0.0,21,0.00,,CLR,0.00,VWS V14.01,2013-02-25 15:34:00,
2013-02-25 07:39:00,38.5,2.0,29.15,South,175,0.0,0.0,21,0.00,,CLR,0.00,VWS V14.01,2013-02-25 15:39:00,
2013-02-25 07:44:00,39.0,2.4,29.15,South,175,0.0,0.0,21,0.00,,CLR,0.00,VWS V14.01,2013-02-25 15:44:00,
2013-02-25 07:49:00,39.7,3.0,29.15,South,175,0.0,0.0,21,0.00,,CLR,0.00,VWS V14.01,2013-02-25 15:49:00,
2013-02-25 07:54:00,40.5,3.6,29.18,ENE,69,2.2,2.7,21,0.00,,CLR,0.00,VWS V14.01,2013-02-25 15:54:00,
2013-02-25 07:59:00,41.7,4.7,29.18,ENE,57,0.0,2.7,21,0.00,,CLR,0.00,VWS V14.01,2013-02-25 15:59:00,
2013-02-25 08:05:00,43.3,5.0,29.18,ENE,69,3.6,3.6,20,0.00,,CLR,0.00,VWS V14.01,2013-02-25 16:05:00,
2013-02-25 08:10:00,44.6,6.0,29.18,ENE,74,3.1,6.3,20,0.00,,CLR,0.00,VWS V14.01,2013-02-25 16:10:00,
2013-02-25 08:15:00,45.9,7.1,29.18,East,83,0.0,3.6,20,0.00,,CLR,0.00,VWS V14.01,2013-02-25 16:15:00,
2013-02-25 08:20:00,46.9,6.8,29.18,NE,40,2.2,3.1,19,0.00,,CLR,0.00,VWS V14.01,2013-02-25 16:20:00,
2013-02-25 08:25:00,47.7,7.4,29.18,ENE,76,0.0,2.2,19,0.00,,CLR,0.00,VWS V14.01,2013-02-25 16:25:00,
2013-02-25 08:30:00,48.6,8.2,29.18,ENE,64,2.7,2.7,19,0.00,,CLR,0.00,VWS V14.01,2013-02-25 16:30:00,
2013-02-25 08:35:00,49.3,8.8,29.18,ENE,63,3.6,3.6,19,0.00,,CLR,0.00,VWS V14.01,2013-02-25 16:35:00,
2013-02-25 08:40:00,50.2,9.5,29.15,ENE,57,0.0,3.1,19,0.00,,CLR,0.00,VWS V14.01,2013-02-25 16:40:00,
2013-02-25 08:45:00,50.7,10.0,29.15,NE,51,3.1,3.1,19,0.00,,CLR,0.00,VWS V14.01,2013-02-25 16:45:00,
2013-02-25 08:50:00,51.4,10.6,29.15,NE,56,3.1,4.0,19,0.00,,CLR,0.00,VWS V14.01,2013-02-25 16:50:00,
2013-02-25 08:55:00,52.0,9.8,29.15,NE,46,2.7,2.7,18,0.00,,CLR,0.00,VWS V14.01,2013-02-25 16:55:00,
2013-02-25 09:00:00,52.2,10.0,29.15,ENE,61,2.7,3.1,18,0.00,,CLR,0.00,VWS V14.01,2013-02-25 17:00:00,
2013-02-25 09:05:00,52.5,10.2,29.15,ENE,58,2.7,3.1,18,0.00,,CLR,0.00,VWS V14.01,2013-02-25 17:05:00,
2013-02-25 09:10:00,52.7,10.4,29.15,ENE,67,0.0,0.0,18,0.00,,CLR,0.00,VWS V14.01,2013-02-25 17:10:00,
2013-02-25 09:15:00,52.9,10.6,29.15,NE,44,2.7,2.7,18,0.00,,CLR,0.00,VWS V14.01,2013-02-25 17:15:00,
2013-02-25 09:21:00,52.9,10.6,29.15,NE,54,0.0,3.1,18,0.00,,CLR,0.00,VWS V14.01,2013-02-25 17:21:00,
2013-02-25 09:26:00,53.1,10.7,29.15,ENE,63,2.2,4.0,18,0.00,,CLR,0.00,VWS V14.01,2013-02-25 17:26:00,
2013-02-25 09:31:00,53.4,11.0,29.15,East,81,0.0,3.6,18,0.00,,CLR,0.00,VWS V14.01,2013-02-25 17:31:00,
2013-02-25 09:36:00,53.8,11.3,29.15,NE,45,2.7,4.9,18,0.00,,CLR,0.00,VWS V14.01,2013-02-25 17:36:00,
2013-02-25 09:41:00,54.3,11.7,29.15,ENE,75,3.1,3.6,18,0.00,,CLR,0.00,VWS V14.01,2013-02-25 17:41:00,
2013-02-25 09:46:00,54.9,12.2,29.15,ENE,64,0.0,0.0,18,0.00,,CLR,0.00,VWS V14.01,2013-02-25 17:46:00,
2013-02-25 09:51:00,55.2,12.5,29.15,NE,49,2.2,3.1,18,0.00,,CLR,0.00,VWS V14.01,2013-02-25 17:51:00,
2013-02-25 09:56:00,55.6,11.5,29.15,NE,49,0.0,0.0,17,0.00,,CLR,0.00,VWS V14.01,2013-02-25 17:56:00,
2013-02-25 10:01:00,55.9,11.8,29.15,ENE,76,2.7,4.0,17,0.00,,CLR,0.00,VWS V14.01,2013-02-25 18:01:00,
2013-02-25 10:06:00,56.7,12.4,29.15,NNE,32,4.0,4.5,17,0.00,,CLR,0.00,VWS V14.01,2013-02-25 18:06:00,
2013-02-25 10:11:00,57.4,12.9,29.15,NNE,29,0.0,2.7,17,0.00,,CLR,0.00,VWS V14.01,2013-02-25 18:11:00,
2013-02-25 10:16:00,58.1,13.5,29.15,NNE,12,4.0,4.0,17,0.00,,CLR,0.00,VWS V14.01,2013-02-25 18:16:00,
2013-02-25 10:21:00,59.0,14.3,29.15,NE,56,0.0,0.0,17,0.00,,CLR,0.00,VWS V14.01,2013-02-25 18:21:00,
2013-02-25 10:26:00,59.9,15.0,29.15,North,11,2.7,2.7,17,0.00,,CLR,0.00,VWS V14.01,2013-02-25 18:26:00,
2013-02-25 10:31:00,61.0,14.5,29.15,ESE,114,0.0,0.0,16,0.00,,CLR,0.00,VWS V14.01,2013-02-25 18:31:00,
2013-02-25 10:36:00,61.7,15.1,29.15,NNE,29,2.7,4.0,16,0.00,,CLR,0.00,VWS V14.01,2013-02-25 18:36:00,
2013-02-25 10:41:00,61.9,15.2,29.15,SSE,150,3.1,3.1,16,0.00,,CLR,0.00,VWS V14.01,2013-02-25 18:41:00,
2013-02-25 10:46:00,61.7,15.1,29.15,NNE,30,2.2,3.6,16,0.00,,CLR,0.00,VWS V14.01,2013-02-25 18:46:00,
2013-02-25 10:51:00,61.3,14.8,29.15,WSW,256,0.0,0.0,16,0.00,,CLR,0.00,VWS V14.01,2013-02-25 18:51:00,
2013-02-25 10:56:00,61.0,14.5,29.15,NW,313,0.0,0.0,16,0.00,,CLR,0.00,VWS V14.01,2013-02-25 18:56:00,
2013-02-25 11:02:00,61.3,14.8,29.15,East,84,0.0,2.2,16,0.00,,CLR,0.00,VWS V14.01,2013-02-25 19:02:00,
2013-02-25 11:07:00,61.5,14.9,29.12,ENE,60,0.0,0.0,16,0.00,,CLR,0.00,VWS V14.01,2013-02-25 19:07:00,
2013-02-25 11:12:00,61.7,15.1,29.12,WNW,297,0.0,0.0,16,0.00,,CLR,0.00,VWS V14.01,2013-02-25 19:12:00,
2013-02-25 11:17:00,61.9,15.2,29.12,NNW,341,0.0,0.0,16,0.00,,CLR,0.00,VWS V14.01,2013-02-25 19:17:00,
2013-02-25 11:22:00,62.2,15.5,29.12,NNE,25,2.7,4.0,16,0.00,,CLR,0.00,VWS V14.01,2013-02-25 19:22:00,
2013-02-25 11:27:00,62.6,15.8,29.12,SSW,213,0.0,0.0,16,0.00,,CLR,0.00,VWS V14.01,2013-02-25 19:27:00,
2013-02-25 11:32:00,62.8,15.9,29.12,NE,34,3.6,3.6,16,0.00,,CLR,0.00,VWS V14.01,2013-02-25 19:32:00,
2013-02-25 11:37:00,63.1,16.2,29.12,East,82,0.0,4.0,16,0.00,,CLR,0.00,VWS V14.01,2013-02-25 19:37:00,
2013-02-25 11:42:00,63.5,16.5,29.12,South,181,0.0,0.0,16,0.00,,CLR,0.00,VWS V14.01,2013-02-25 19:42:00,
2013-02-25 11:47:00,63.7,16.7,29.12,South,178,0.0,0.0,16,0.00,,CLR,0.00,VWS V14.01,2013-02-25 19:47:00,
2013-02-25 11:52:00,63.9,16.8,29.12,SW,230,4.0,5.4,16,0.00,,CLR,0.00,VWS V14.01,2013-02-25 19:52:00,
2013-02-25 11:57:00,64.2,17.1,29.12,WNW,301,2.2,2.2,16,0.00,,CLR,0.00,VWS V14.01,2013-02-25 19:57:00,
2013-02-25 12:02:00,64.2,17.1,29.12,SW,236,8.3,8.3,16,0.00,,CLR,0.00,VWS V14.01,2013-02-25 20:02:00,
2013-02-25 12:07:00,64.2,17.1,29.09,WNW,286,3.1,4.9,16,0.00,,CLR,0.00,VWS V14.01,2013-02-25 20:07:00,
2013-02-25 12:12:00,64.2,17.1,29.09,SW,229,4.9,4.9,16,0.00,,CLR,0.00,VWS V14.01,2013-02-25 20:12:00,
2013-02-25 12:17:00,64.2,17.1,29.09,SSW,212,5.8,8.3,16,0.00,,CLR,0.00,VWS V14.01,2013-02-25 20:17:00,
2013-02-25 12:22:00,64.2,17.1,29.09,SW,225,2.2,4.9,16,0.00,,CLR,0.00,VWS V14.01,2013-02-25 20:22:00,
2013-02-25 12:27:00,64.4,15.8,29.09,SSE,158,2.7,3.1,15,0.00,,CLR,0.00,VWS V14.01,2013-02-25 20:27:00,
2013-02-25 12:32:00,64.6,15.9,29.09,SSE,168,5.8,6.3,15,0.00,,CLR,0.00,VWS V14.01,2013-02-25 20:32:00,
2013-02-25 12:37:00,64.9,16.2,29.09,South,183,2.7,3.6,15,0.00,,CLR,0.00,VWS V14.01,2013-02-25 20:37:00,
2013-02-25 12:42:00,65.1,16.4,29.09,South,176,4.9,6.3,15,0.00,,CLR,0.00,VWS V14.01,2013-02-25 20:42:00,
2013-02-25 12:47:00,65.3,16.5,29.09,SSW,205,3.6,4.9,15,0.00,,CLR,0.00,VWS V14.01,2013-02-25 20:47:00,
2013-02-25 12:52:00,65.3,16.5,29.09,SSW,204,4.0,5.4,15,0.00,,CLR,0.00,VWS V14.01,2013-02-25 20:52:00,
2013-02-25 12:58:00,65.5,16.6,29.09,SSE,165,4.0,4.0,15,0.00,,CLR,0.00,VWS V14.01,2013-02-25 20:58:00,
2013-02-25 13:03:00,65.5,16.6,29.09,SW,220,2.7,6.3,15,0.00,,CLR,0.00,VWS V14.01,2013-02-25 21:03:00,
2013-02-25 13:08:00,65.7,16.8,29.09,South,190,5.8,5.8,15,0.00,,CLR,0.00,VWS V14.01,2013-02-25 21:08:00,
2013-02-25 13:13:00,65.7,16.8,29.09,SSE,156,4.9,8.1,15,0.00,,CLR,0.00,VWS V14.01,2013-02-25 21:13:00,
2013-02-25 13:18:00,65.7,16.8,29.09,WSW,252,2.7,5.8,15,0.00,,CLR,0.00,VWS V14.01,2013-02-25 21:18:00,
2013-02-25 13:23:00,65.8,16.9,29.06,SSW,209,0.0,0.0,15,0.00,,CLR,0.00,VWS V14.01,2013-02-25 21:23:00,
2013-02-25 13:28:00,65.8,16.9,29.06,WSW,258,6.3,10.1,15,0.00,,CLR,0.00,VWS V14.01,2013-02-25 21:28:00,
2013-02-25 13:33:00,65.8,16.9,29.06,WSW,247,4.9,4.9,15,0.00,,CLR,0.00,VWS V14.01,2013-02-25 21:33:00,
2013-02-25 13:38:00,66.0,17.1,29.06,SSW,212,5.8,5.8,15,0.00,,CLR,0.00,VWS V14.01,2013-02-25 21:38:00,
2013-02-25 13:43:00,66.2,17.2,29.06,WSW,252,4.0,4.0,15,0.00,,CLR,0.00,VWS V14.01,2013-02-25 21:43:00,
2013-02-25 13:48:00,66.2,17.2,29.06,SE,126,6.3,6.3,15,0.00,,CLR,0.00,VWS V14.01,2013-02-25 21:48:00,
2013-02-25 13:53:00,66.4,17.4,29.06,South,176,2.2,3.6,15,0.00,,CLR,0.00,VWS V14.01,2013-02-25 21:53:00,
2013-02-25 13:58:00,66.4,17.4,29.06,SSE,154,4.0,4.0,15,0.00,,CLR,0.00,VWS V14.01,2013-02-25 21:58:00,
2013-02-25 14:03:00,66.4,17.4,29.06,SSW,207,4.9,4.9,15,0.00,,FEW200,0.00,VWS V14.01,2013-02-25 22:03:00,
2013-02-25 14:08:00,66.6,17.5,29.06,SE,146,2.2,4.0,15,0.00,,FEW200,0.00,VWS V14.01,2013-02-25 22:08:00,
2013-02-25 14:13:00,66.4,17.4,29.06,SW,224,5.4,5.4,15,0.00,,FEW200,0.00,VWS V14.01,2013-02-25 22:13:00,
2013-02-25 14:18:00,66.4,17.4,29.06,SSW,205,5.8,5.8,15,0.00,,FEW200,0.00,VWS V14.01,2013-02-25 22:18:00,
2013-02-25 14:23:00,66.4,17.4,29.06,SSE,149,5.4,8.1,15,0.00,,FEW200,0.00,VWS V14.01,2013-02-25 22:23:00,
2013-02-25 14:29:00,66.6,17.5,29.06,SW,216,5.8,8.1,15,0.00,,FEW200,0.00,VWS V14.01,2013-02-25 22:29:00,
2013-02-25 14:34:00,66.6,17.5,29.06,South,171,3.6,6.3,15,0.00,,FEW200,0.00,VWS V14.01,2013-02-25 22:34:00,
2013-02-25 14:39:00,66.6,17.5,29.06,SSW,211,2.7,3.6,15,0.00,,FEW200,0.00,VWS V14.01,2013-02-25 22:39:00,
2013-02-25 14:44:00,66.6,17.5,29.06,SSW,194,2.7,4.0,15,0.00,,FEW200,0.00,VWS V14.01,2013-02-25 22:44:00,
2013-02-25 14:49:00,66.6,17.5,29.06,West,266,4.9,5.4,15,0.00,,FEW200,0.00,VWS V14.01,2013-02-25 22:49:00,
2013-02-25 14:54:00,66.6,17.5,29.06,South,189,5.8,7.6,15,0.00,,FEW200,0.00,VWS V14.01,2013-02-25 22:54:00,
2013-02-25 14:59:00,66.6,17.5,29.06,SSW,208,4.0,5.4,15,0.00,,FEW200,0.00,VWS V14.01,2013-02-25 22:59:00,
2013-02-25 15:04:00,66.6,17.5,29.06,SSW,206,5.8,8.7,15,0.00,,FEW200,0.00,VWS V14.01,2013-02-25 23:04:00,
2013-02-25 15:09:00,66.9,17.8,29.06,SSE,158,5.8,7.6,15,0.00,,FEW200,0.00,VWS V14.01,2013-02-25 23:09:00,
2013-02-25 15:14:00,67.3,18.1,29.06,SSW,206,4.9,4.9,15,0.00,,FEW200,0.00,VWS V14.01,2013-02-25 23:14:00,
2013-02-25 15:19:00,67.6,18.4,29.06,SW,214,8.7,8.7,15,0.00,,FEW200,0.00,VWS V14.01,2013-02-25 23:19:00,
2013-02-25 15:24:00,67.8,18.5,29.06,WSW,239,4.0,6.3,15,0.00,,FEW200,0.00,VWS V14.01,2013-02-25 23:24:00,
2013-02-25 15:29:00,68.0,18.7,29.06,SSW,211,6.7,7.6,15,0.00,,FEW200,0.00,VWS V14.01,2013-02-25 23:29:00,
2013-02-25 15:34:00,67.8,18.5,29.06,SSW,199,4.0,6.3,15,0.00,,FEW200,0.00,VWS V14.01,2013-02-25 23:34:00,
2013-02-25 15:39:00,67.8,18.5,29.06,SSE,157,3.6,8.7,15,0.00,,FEW200,0.00,VWS V14.01,2013-02-25 23:39:00,
2013-02-25 15:44:00,68.0,18.7,29.06,South,187,3.6,6.3,15,0.00,,FEW200,0.00,VWS V14.01,2013-02-25 23:44:00,
2013-02-25 15:49:00,68.0,18.7,29.06,SSW,212,10.1,10.5,15,0.00,,FEW200,0.00,VWS V14.01,2013-02-25 23:49:00,
2013-02-25 15:54:00,67.8,18.5,29.03,South,188,7.6,7.6,15,0.00,,FEW200,0.00,VWS V14.01,2013-02-25 23:54:00,
2013-02-25 15:59:00,67.3,18.1,29.03,SW,226,6.3,6.3,15,0.00,,FEW200,0.00,VWS V14.01,2013-02-25 23:59:00,
2013-02-25 16:04:00,66.9,17.8,29.03,SSE,166,3.6,3.6,15,0.00,,FEW200,0.00,VWS V14.01,2013-02-26 00:04:00,
2013-02-25 16:09:00,66.7,17.6,29.03,SSW,210,2.2,3.6,15,0.00,,FEW200,0.00,VWS V14.01,2013-02-26 00:09:00,
2013-02-25 16:14:00,66.9,17.8,29.03,SW,216,3.6,7.6,15,0.00,,FEW200,0.00,VWS V14.01,2013-02-26 00:14:00,
2013-02-25 16:19:00,66.2,17.2,29.03,SSW,208,7.6,8.1,15,0.00,,FEW200,0.00,VWS V14.01,2013-02-26 00:19:00,
2013-02-25 16:25:00,65.7,16.8,29.03,SSW,210,3.1,7.6,15,0.00,,FEW200,0.00,VWS V14.01,2013-02-26 00:25:00,
2013-02-25 16:30:00,65.1,16.4,29.03,SW,219,3.1,10.1,15,0.00,,FEW200,0.00,VWS V14.01,2013-02-26 00:30:00,
2013-02-25 16:35:00,64.8,16.1,29.03,SSW,200,8.7,8.7,15,0.00,,FEW200,0.00,VWS V14.01,2013-02-26 00:35:00,
2013-02-25 16:40:00,64.2,17.1,29.03,SSE,153,5.4,5.4,16,0.00,,FEW200,0.00,VWS V14.01,2013-02-26 00:40:00,
2013-02-25 16:45:00,63.9,16.8,29.03,SSW,200,7.2,7.6,16,0.00,,FEW200,0.00,VWS V14.01,2013-02-26 00:45:00,
2013-02-25 16:50:00,63.3,16.4,29.03,SSW,197,8.7,8.7,16,0.00,,FEW200,0.00,VWS V14.01,2013-02-26 00:50:00,
2013-02-25 16:55:00,62.6,15.8,29.03,SSW,194,5.4,5.4,16,0.00,,FEW200,0.00,VWS V14.01,2013-02-26 00:55:00,
2013-02-25 17:00:00,62.1,15.4,29.03,SW,215,2.7,4.9,16,0.00,,FEW200,0.00,VWS V14.01,2013-02-26 01:00:00,
2013-02-25 17:05:00,61.5,14.9,29.03,South,177,8.3,8.3,16,0.00,,FEW200,0.00,VWS V14.01,2013-02-26 01:05:00,
2013-02-25 17:10:00,61.0,14.5,29.03,West,262,6.3,6.3,16,0.00,,FEW200,0.00,VWS V14.01,2013-02-26 01:10:00,
2013-02-25 17:15:00,60.6,15.6,29.03,SSW,203,5.8,8.3,17,0.00,,FEW200,0.00,VWS V14.01,2013-02-26 01:15:00,
2013-02-25 17:20:00,60.1,15.1,29.03,SSW,198,4.9,4.9,17,0.00,,FEW200,0.00,VWS V14.01,2013-02-26 01:20:00,
2013-02-25 17:25:00,59.7,14.9,29.03,SSE,155,3.1,4.0,17,0.00,,FEW200,0.00,VWS V14.01,2013-02-26 01:25:00,
2013-02-25 17:30:00,59.5,14.7,29.03,SW,217,4.0,6.3,17,0.00,,FEW200,0.00,VWS V14.01,2013-02-26 01:30:00,
2013-02-25 17:35:00,59.2,14.4,29.03,SSW,203,5.8,5.8,17,0.00,,FEW200,0.00,VWS V14.01,2013-02-26 01:35:00,
2013-02-25 17:40:00,58.8,14.1,29.03,South,171,3.1,5.8,17,0.00,,FEW200,0.00,VWS V14.01,2013-02-26 01:40:00,
2013-02-25 17:45:00,58.5,13.8,29.03,South,189,3.6,5.4,17,0.00,,FEW200,0.00,VWS V14.01,2013-02-26 01:45:00,
2013-02-25 17:50:00,58.1,13.5,29.03,South,172,4.0,4.0,17,0.00,,FEW200,0.00,VWS V14.01,2013-02-26 01:50:00,
2013-02-25 17:55:00,57.9,13.4,29.03,South,181,5.4,8.7,17,0.00,,FEW200,0.00,VWS V14.01,2013-02-26 01:55:00,
2013-02-25 18:00:00,57.6,13.1,29.03,South,187,3.6,4.0,17,0.00,,FEW120,0.00,VWS V14.01,2013-02-26 02:00:00,
2013-02-25 18:06:00,57.2,12.8,29.03,SW,216,2.7,4.0,17,0.00,,FEW120,0.00,VWS V14.01,2013-02-26 02:06:00,
2013-02-25 18:11:00,56.8,12.5,29.03,SSW,201,4.0,8.1,17,0.00,,FEW120,0.00,VWS V14.01,2013-02-26 02:11:00,
2013-02-25 18:16:00,56.7,12.4,29.03,SE,136,4.9,8.3,17,0.00,,FEW120,0.00,VWS V14.01,2013-02-26 02:16:00,
2013-02-25 18:21:00,56.3,12.1,29.03,SSW,205,4.0,4.0,17,0.00,,FEW120,0.00,VWS V14.01,2013-02-26 02:21:00,
2013-02-25 18:26:00,56.1,11.9,29.03,SSW,199,4.0,4.0,17,0.00,,FEW120,0.00,VWS V14.01,2013-02-26 02:26:00,
2013-02-25 18:31:00,55.9,11.8,29.03,South,190,6.3,6.3,17,0.00,,FEW120,0.00,VWS V14.01,2013-02-26 02:31:00,
2013-02-25 18:36:00,55.8,11.6,29.03,SSE,157,4.0,4.0,17,0.00,,FEW120,0.00,VWS V14.01,2013-02-26 02:36:00,
2013-02-25 18:41:00,55.4,11.3,29.03,South,179,3.6,4.9,17,0.00,,FEW120,0.00,VWS V14.01,2013-02-26 02:41:00,
2013-02-25 18:46:00,55.2,12.5,29.03,SSW,199,4.9,4.9,18,0.00,,FEW120,0.00,VWS V14.01,2013-02-26 02:46:00,
2013-02-25 18:51:00,54.9,12.2,29.03,SSW,192,3.1,3.6,18,0.00,,FEW120,0.00,VWS V14.01,2013-02-26 02:51:00,
2013-02-25 18:56:00,54.7,12.0,29.03,SSW,196,3.6,3.6,18,0.00,,FEW120,0.00,VWS V14.01,2013-02-26 02:56:00,
2013-02-25 19:01:00,54.5,11.9,29.03,SW,217,5.4,5.4,18,0.00,,FEW120,0.00,VWS V14.01,2013-02-26 03:01:00,
2013-02-25 19:06:00,54.3,11.7,29.03,South,187,5.8,5.8,18,0.00,,FEW120,0.00,VWS V14.01,2013-02-26 03:06:00,
2013-02-25 19:11:00,54.1,11.6,29.03,SW,225,0.0,2.2,18,0.00,,FEW120,0.00,VWS V14.01,2013-02-26 03:11:00,
2013-02-25 19:16:00,54.0,11.4,29.03,SSW,205,0.0,3.1,18,0.00,,FEW120,0.00,VWS V14.01,2013-02-26 03:16:00,
2013-02-25 19:21:00,53.6,11.1,29.03,West,270,2.7,3.1,18,0.00,,FEW120,0.00,VWS V14.01,2013-02-26 03:21:00,
2013-02-25 19:27:00,53.2,10.9,29.03,WSW,244,2.2,4.0,18,0.00,,FEW120,0.00,VWS V14.01,2013-02-26 03:27:00,
2013-02-25 19:32:00,52.9,10.6,29.03,WSW,241,4.9,4.9,18,0.00,,FEW120,0.00,VWS V14.01,2013-02-26 03:32:00,
2013-02-25 19:37:00,52.7,10.4,29.03,South,187,2.7,3.6,18,0.00,,FEW120,0.00,VWS V14.01,2013-02-26 03:37:00,
2013-02-25 19:42:00,52.5,10.2,29.03,SW,223,2.7,4.0,18,0.00,,FEW120,0.00,VWS V14.01,2013-02-26 03:42:00,
2013-02-25 19:47:00,52.3,10.1,29.03,South,174,0.0,3.1,18,0.00,,FEW120,0.00,VWS V14.01,2013-02-26 03:47:00,
2013-02-25 19:52:00,52.3,10.1,29.03,WSW,254,4.9,6.3,18,0.00,,FEW120,0.00,VWS V14.01,2013-02-26 03:52:00,
2013-02-25 19:57:00,52.3,10.1,29.03,SSW,210,2.7,3.6,18,0.00,,FEW120,0.00,VWS V14.01,2013-02-26 03:57:00,
2013-02-25 20:02:00,52.3,10.1,29.03,South,188,3.1,3.6,18,0.00,,CLR,0.00,VWS V14.01,2013-02-26 04:02:00,
2013-02-25 20:07:00,52.2,10.0,29.06,South,190,4.5,4.5,18,0.00,,CLR,0.00,VWS V14.01,2013-02-26 04:07:00,
2013-02-25 20:12:00,52.0,9.8,29.06,SSW,197,5.8,5.8,18,0.00,,CLR,0.00,VWS V14.01,2013-02-26 04:12:00,
2013-02-25 20:17:00,51.8,9.7,29.06,SSW,195,5.4,5.4,18,0.00,,CLR,0.00,VWS V14.01,2013-02-26 04:17:00,
2013-02-25 20:22:00,51.8,9.7,29.03,SSW,200,4.9,4.9,18,0.00,,CLR,0.00,VWS V14.01,2013-02-26 04:22:00,
2013-02-25 20:27:00,51.6,10.7,29.03,SSW,207,6.3,6.3,19,0.00,,CLR,0.00,VWS V14.01,2013-02-26 04:27:00,
2013-02-25 20:32:00,51.4,10.6,29.03,SW,230,2.2,2.2,19,0.00,,CLR,0.00,VWS V14.01,2013-02-26 04:32:00,
2013-02-25 20:37:00,51.3,12.7,29.03,SSE,159,3.6,4.9,21,0.00,,CLR,0.00,VWS V14.01,2013-02-26 04:37:00,
2013-02-25 20:42:00,51.1,12.5,29.03,SW,222,4.0,4.9,21,0.00,,CLR,0.00,VWS V14.01,2013-02-26 04:42:00,
2013-02-25 20:47:00,50.9,12.4,29.03,SSE,168,3.1,4.0,21,0.00,,CLR,0.00,VWS V14.01,2013-02-26 04:47:00,
2013-02-25 20:53:00,50.5,12.1,29.03,SSW,195,3.6,4.0,21,0.00,,CLR,0.00,VWS V14.01,2013-02-26 04:53:00,
2013-02-25 20:58:00,50.4,11.9,29.03,South,186,0.0,2.7,21,0.00,,CLR,0.00,VWS V14.01,2013-02-26 04:58:00,
2013-02-25 21:00:00,50.4,11.9,29.03,WSW,254,0.0,3.1,21,0.00,,CLR,0.00,VWS V14.01,2013-02-26 05:00:00,
2013-02-25 21:06:00,50.2,11.8,29.03,WSW,241,0.0,0.0,21,0.00,,CLR,0.00,VWS V14.01,2013-02-26 05:06:00,
2013-02-25 21:11:00,50.0,11.6,29.03,WSW,238,0.0,0.0,21,0.00,,CLR,0.00,VWS V14.01,2013-02-26 05:11:00,
2013-02-25 21:16:00,49.8,11.5,29.03,WSW,238,0.0,0.0,21,0.00,,CLR,0.00,VWS V14.01,2013-02-26 05:16:00,
2013-02-25 21:21:00,49.5,11.2,29.03,SW,235,2.2,3.6,21,0.00,,CLR,0.00,VWS V14.01,2013-02-26 05:21:00,
2013-02-25 21:26:00,49.1,13.9,29.03,SW,234,2.7,3.6,24,0.00,,CLR,0.00,VWS V14.01,2013-02-26 05:26:00,
2013-02-25 21:31:00,48.9,13.7,29.03,SW,228,2.7,2.7,24,0.00,,CLR,0.00,VWS V14.01,2013-02-26 05:31:00,
2013-02-25 21:36:00,48.7,13.6,29.06,SSW,212,4.0,4.0,24,0.00,,CLR,0.00,VWS V14.01,2013-02-26 05:36:00,
2013-02-25 21:41:00,48.6,15.2,29.06,SSW,206,2.2,2.7,26,0.00,,CLR,0.00,VWS V14.01,2013-02-26 05:41:00,
2013-02-25 21:46:00,48.4,15.1,29.06,SW,224,2.7,3.6,26,0.00,,CLR,0.00,VWS V14.01,2013-02-26 05:46:00,
2013-02-25 21:51:00,48.2,14.9,29.06,South,183,3.1,3.1,26,0.00,,CLR,0.00,VWS V14.01,2013-02-26 05:51:00,
2013-02-25 21:56:00,48.0,15.6,29.06,SSW,194,3.6,4.0,27,0.00,,CLR,0.00,VWS V14.01,2013-02-26 05:56:00,
2013-02-25 22:01:00,47.8,15.5,29.06,SSW,199,3.6,3.6,27,0.00,,CLR,0.00,VWS V14.01,2013-02-26 06:01:00,
2013-02-25 22:06:00,47.8,15.5,29.06,South,179,5.4,5.4,27,0.00,,CLR,0.00,VWS V14.01,2013-02-26 06:06:00,
2013-02-25 22:11:00,47.7,15.3,29.06,SSW,203,2.7,4.5,27,0.00,,CLR,0.00,VWS V14.01,2013-02-26 06:11:00,
2013-02-25 22:16:00,47.7,15.3,29.06,SW,219,2.7,4.9,27,0.00,,CLR,0.00,VWS V14.01,2013-02-26 06:16:00,
2013-02-25 22:21:00,47.5,15.2,29.06,South,188,4.9,4.9,27,0.00,,CLR,0.00,VWS V14.01,2013-02-26 06:21:00,
2013-02-25 22:27:00,47.3,15.0,29.06,SSW,209,3.6,4.0,27,0.00,,CLR,0.00,VWS V14.01,2013-02-26 06:27:00,
2013-02-25 22:32:00,47.3,15.0,29.06,SW,218,3.1,4.5,27,0.00,,CLR,0.00,VWS V14.01,2013-02-26 06:32:00,
2013-02-25 22:37:00,47.3,15.9,29.06,SW,235,4.0,5.4,28,0.00,,CLR,0.00,VWS V14.01,2013-02-26 06:37:00,
2013-02-25 22:42:00,47.1,15.7,29.06,South,186,0.0,0.0,28,0.00,,CLR,0.00,VWS V14.01,2013-02-26 06:42:00,
2013-02-25 22:47:00,46.9,15.6,29.06,ESE,106,0.0,0.0,28,0.00,,CLR,0.00,VWS V14.01,2013-02-26 06:47:00,
2013-02-25 22:52:00,46.6,15.2,29.06,SSE,164,0.0,0.0,28,0.00,,CLR,0.00,VWS V14.01,2013-02-26 06:52:00,
2013-02-25 22:57:00,46.6,15.2,29.06,SSE,164,0.0,0.0,28,0.00,,CLR,0.00,VWS V14.01,2013-02-26 06:57:00,
2013-02-25 23:02:00,46.4,15.1,29.06,SE,143,0.0,0.0,28,0.00,,CLR,0.00,VWS V14.01,2013-02-26 07:02:00,
2013-02-25 23:07:00,46.2,14.9,29.06,SE,143,0.0,0.0,28,0.00,,CLR,0.00,VWS V14.01,2013-02-26 07:07:00,
2013-02-25 23:12:00,46.0,14.8,29.06,SE,143,0.0,0.0,28,0.00,,CLR,0.00,VWS V14.01,2013-02-26 07:12:00,
2013-02-25 23:17:00,45.9,14.6,29.06,SE,143,0.0,0.0,28,0.00,,CLR,0.00,VWS V14.01,2013-02-26 07:17:00,
2013-02-25 23:22:00,45.5,14.3,29.06,SE,143,0.0,0.0,28,0.00,,CLR,0.00,VWS V14.01,2013-02-26 07:22:00,
2013-02-25 23:27:00,45.3,14.1,29.06,South,174,3.1,3.1,28,0.00,,CLR,0.00,VWS V14.01,2013-02-26 07:27:00,
2013-02-25 23:32:00,45.0,13.8,29.06,SSE,164,0.0,0.0,28,0.00,,CLR,0.00,VWS V14.01,2013-02-26 07:32:00,
2013-02-25 23:37:00,44.8,13.7,29.03,SSE,164,0.0,0.0,28,0.00,,CLR,0.00,VWS V14.01,2013-02-26 07:37:00,
2013-02-25 23:42:00,44.4,14.2,29.03,SSE,164,0.0,0.0,29,0.00,,CLR,0.00,VWS V14.01,2013-02-26 07:42:00,
2013-02-25 23:47:00,44.2,14.0,29.03,SSE,164,0.0,0.0,29,0.00,,CLR,0.00,VWS V14.01,2013-02-26 07:47:00,
2013-02-25 23:52:00,44.1,13.9,29.03,SSE,164,0.0,0.0,29,0.00,,CLR,0.00,VWS V14.01,2013-02-26 07:52:00,
2013-02-25 23:57:00,43.9,13.7,29.03,SSE,164,0.0,0.0,29,0.00,,CLR,0.00,VWS V14.01,2013-02-26 07:57:00,